ROAHRORS

Guest
Details From ROAH - NAHA
To RORS - Shimojijima
Flight Number -
Tags generated
Created
Modified
Stats Distance 159 nm / 294 km
Max Altitude 18,100 ft / 5,517 m
Waypoints 3
Social Downloads 2
Likes 0
Share VATSIM

Download

Looking for another format? Having issues loading an existing format? Contact us
Advertisement - Login to hide

Notes

Basic altitude profile: - Ascent Rate: 2500ft/min - Ascent Speed: 250kts - Cruise Altitude: 35000ft - Cruise Speed: 420kts - Descent Rate: 1500ft/min - Descent Speed: 250kts Options: - Use NATs: yes - Use PACOTS: yes - Use low airways: yes - Use high airways: yes

Route

ROAH RYOSA RORS

ID Type Via Altitude Latitude Longitude Leg Dist Tot Dist Heading (true) Name
O ROAH APT - 0 ft / 0 m 26.19582˚ 127.64587˚ - 0 nm - NAHA
RYOSA FIX - 18,100 ft / 5,517 m 25.51988˚ 126.50580˚ 73 nm 73 nm 237° / 236° -
O RORS APT - 0 ft / 0 m 24.82690˚ 125.14495˚ 84 nm 158 nm 241° / 240° Shimojijima

Altitude Profile

Advertisement - Login to hide

ROAH

Details ICAO ROAH (OKA)
Name NAHA
Region Japan
Timezone Asia/Tokyo (UTC+9.0)
Stats Elevation 12 ft / 4 m (AMSL)
Location 26.195815° 127.645868°
Runways 1
Magnetic Variation 5.269° W

METAR

ROAH 270000Z 26007KT 9999 FEW015 BKN/// 28/26 Q1009

Decode

TAF

TAF AMD ROAH 270014Z 2700/2806 26010KT 9999 FEW010 SCT020 TEMPO 2712/2721 FEW002 BKN005

Decode

Departure Runways

ID Width Length Bearing (true) Bearing (mag) Surface Threshold Offset Overrun Length
18 150 ft / 46 m 9,881 ft / 3,012 m 177.59° 182.86° Asphalt 138 ft / 42 m 640 ft / 195 m
36 150 ft / 46 m 9,881 ft / 3,012 m 357.59° 2.86° Asphalt 0 ft / 0 m 509 ft / 155 m

RORS

Details ICAO RORS (SHI)
Name Shimojijima
Region Japan
Timezone Asia/Tokyo (UTC+9.0)
Stats Elevation 0 ft / 0 m (AMSL)
Location 24.826902° 125.144946°
Runways 1
Magnetic Variation 4.789° W

METAR

RORS 270000Z 20006KT 170V240 9999 FEW010 SCT/// 29/26 Q1009

Decode

TAF

Not found

Destination Runways

ID Width Length Bearing (true) Bearing (mag) Surface Threshold Offset Overrun Length
17 200 ft / 61 m 9,879 ft / 3,011 m 166.06° 170.85° Asphalt 0 ft / 0 m 197 ft / 60 m
35 200 ft / 61 m 9,879 ft / 3,011 m 346.06° 350.85° Asphalt 0 ft / 0 m 197 ft / 60 m

Approach Navaids

Runway Type Ident Frequency Range Bearing (true) Bearing (mag) Slope Elevation
17 Localiser ISB 111.50 MHz 18 nm / 33 km 166.06° 170.85° - 0 ft / 0 m (AMSL)
17 Glidescope ISB 111.50 MHz 10 nm / 19 km 166.06° 170.85° 3.00° 0 ft / 0 m (AMSL)
17 DME ISB 111.50 MHz 18 nm / 33 km - - - 31 ft / 9 m (AMSL)
35 Localiser ISA 110.90 MHz 18 nm / 33 km 346.06° 350.85° - 0 ft / 0 m (AMSL)
35 Glidescope ISA 110.90 MHz 10 nm / 19 km 346.06° 350.85° 3.00° 0 ft / 0 m (AMSL)
35 DME ISA 110.90 MHz 18 nm / 33 km - - - 62 ft / 19 m (AMSL)

Popular Alternatives